This demonstration page uses our WeatherBlox Daily Observations layout. Learn more.

Left ArrowRight Arrow

39.08367, -84.50855

Hourly Observations for December 12, 2017

Temp ( °F °C ) Dew Point ( °F °C ) Humidity (%) Winds ( mph kmh ) Pressure ( in mb ) Visibility ( mi km ) Precip ( " mm )
12:53 am 00:53 Cloudy 43 6.1 29 -1.7 58 58 W 23 37 29.76 1008 10 16 N/A
1:53 am 01:53 Cloudy 41 5 29 -1.7 62 62 W 18 30 29.79 1009 10 16 N/A
2:34 am 02:34 Cloudy 40 4.4 29 -1.7 65 65 NW 16 26 29.83 1010 10 16 N/A
2:53 am 02:53 Cloudy 39 3.9 30 -1.1 70 70 NW 12 19 29.82 1010 9 14 N/A
3:53 am 03:53 Cloudy 37 2.8 30 -1.1 76 76 W 10 17 29.83 1010 8 13 N/A
4:53 am 04:53 Cloudy 37 2.8 30 -1.1 76 76 WNW 10 17 29.85 1011 7 11 N/A
5:53 am 05:53 Cloudy 36 2.2 31 -0.6 82 82 W 12 19 29.87 1011 7 11 N/A
6:24 am 06:24 Cloudy with Rain 34 1.1 32 undefined 92 92 NW 7 11 29.91 1013 3 4 0.01 0.25
6:32 am 06:32 Cloudy with Light Rain 34 1.1 31 -0.6 89 89 NW 13 20 29.91 1013 3 5 0.02 0.51
6:40 am 06:40 Cloudy with Light Wintry Mix 34 1.1 31 -0.6 89 89 WNW 12 19 29.91 1013 9 14 0.02 0.51
6:53 am 06:53 Cloudy 34 1.1 30 -1.1 85 85 WNW 8 13 29.90 1012 10 16 0.02 0.51
7:12 am 07:12 Cloudy 34 1.1 30 -1.1 85 85 NW 9 15 29.91 1013 10 16 N/A
7:49 am 07:49 Cloudy with Light Snow 34 1 28 -2 81 81 NW 9 15 29.94 1014 7 11 N/A
7:53 am 07:53 Cloudy with Light Snow 33 0.6 27 -2.8 78 78 NNW 10 17 29.92 1013 8 13 N/A
8:53 am 08:53 Cloudy 32 undefined 24 -4.4 73 73 NW 12 19 29.94 1014 8 13 N/A
9:53 am 09:53 Cloudy 31 -0.6 22 -5.6 69 69 NW 14 22 29.97 1015 10 16 N/A
10:53 am 10:53 Cloudy 31 -0.6 16 -8.9 54 54 WNW 13 20 29.99 1016 10 16 N/A
11:53 am 11:53 Mostly Cloudy 30 -1.1 14 -10 51 51 WNW 18 30 29.99 1016 10 16 N/A
12:53 pm 12:53 Cloudy 29 -1.7 15 -9.4 56 56 NW 16 26 29.98 1015 10 16 N/A
1:53 pm 13:53 Cloudy 30 -1.1 14 -10 51 51 NW 8 13 29.98 1015 10 16 N/A
2:53 pm 14:53 Mostly Cloudy 30 -1.1 11 -11.7 45 45 NW 14 22 29.99 1016 10 16 N/A
3:53 pm 15:53 Mostly Cloudy 28 -2.2 12 -11.1 51 51 NW 15 24 29.99 1016 10 16 N/A
4:53 pm 16:53 Mostly Cloudy 28 -2.2 10 -12.2 47 47 VRB 7 11 30.00 1016 10 16 N/A
5:53 pm 17:53 Mostly Cloudy 27 -2.8 8 -13.3 45 45 W 14 22 30.02 1017 10 16 N/A
6:53 pm 18:53 Mostly Cloudy 26 -3.3 8 -13.3 46 46 W 15 24 30.04 1017 10 16 N/A
7:53 pm 19:53 Mostly Cloudy 26 -3.3 8 -13.3 46 46 NW 9 15 30.05 1018 10 16 N/A
8:53 pm 20:53 Clear 23 -5 8 -13.3 53 53 NNW 8 13 30.06 1018 10 16 N/A
9:53 pm 21:53 Clear 22 -5.6 8 -13.3 55 55 NNW 7 11 30.06 1018 10 16 N/A
10:53 pm 22:53 Clear 21 -6.1 8 -13.3 57 57 WNW 3 6 30.06 1018 10 16 N/A
11:53 pm 23:53 Clear 21 -6.1 8 -13.3 57 57 WNW 6 9 30.06 1018 10 16 N/A

Powered by AerisWeather